Simultaneous Nadir Overpasses (SNOs) Predictions

Prediction of SNOs between GOES-16 and AQUA Satellite Orbit:

Table of predicted SNOs for the next 14.0 days since TLE Epoch: 12/1/2017
Index Date Time (GOES-16) GOES-16 Lat,Lon AQUA Lat,Lon Distance(km) Time Diff (sec)
1 12/02/2017 19:22:01 0.00, -86.83 -0.02, -86.96 14.60 80
2 12/04/2017 19:12:20 -0.00, -84.14 0.02, -83.88 29.06 80
3 12/06/2017 19:00:00 -0.01, -81.45 0.13, -80.81 73.00 80
4 12/08/2017 18:47:39 -0.02, -78.76 0.18, -77.72 117.71 80
5 12/10/2017 18:35:19 -0.02, -76.09 0.30, -74.65 163.18 80
6 12/12/2017 18:22:58 -0.02, -73.42 0.35, -71.57 209.48 80
7 12/13/2017 06:41:32 0.02, -72.71 0.87, -76.70 454.22 80
8 12/14/2017 18:10:38 -0.03, -70.75 0.48, -68.50 256.48 80
9 12/15/2017 06:29:11 0.03, -70.05 0.81, -73.62 407.07 80




NCC Satellite Simultaneous Nadir Overpasses (SNOs) Prediction Service
